Location: Greenspot (historical)
(34.0858°N, 117.1109°W)
Time: 05:29:51
(UTC+00:00)

Cosmos 1331 Rocket - Pass Details

Date: 18 April 2024
Orbit: 747 x 776 km, 74.0° (Epoch: 28 May)

Event Time Altitude Azimuth Distance (km) Brightness Sun altitude
Rises 12:10:17 0° 344° (NNW) 3,260 7.4 -13.1°
Reaches altitude 10° 12:12:40 10° 345° (NNW) 2,328 6.6 -12.7°
Maximum altitude 12:17:58 80° 72° (ENE) 789 4.2 -11.7°
Drops below altitude 10° 12:23:13 10° 160° (SSE) 2,304 6.5 -10.7°
Sets 12:25:35 0° 162° (SSE) 3,223 7.2 -10.2°
